#timestamp,LO_Frequency,Hit,StdDev 
1547427615.9,286046993.7,N
1547427635.7,286046992.4,N
1547427655.6,286046989.8,N
1547427675.4,286046987.7,N
1547427695.2,286046988.0,N
1547427715.1,286046989.8,N
1547427716.0,286046989.8,N
1547427735.8,286046989.0,N
1547427755.6,286046991.3,N
1547427775.5,286046994.7,N
1547427795.3,286046995.5,N
1547427815.2,286047004.9,N
1547427835.9,286047010.5,N
1547427855.7,286047007.9,N
1547427875.6,286047004.0,N
1547427895.4,286047003.8,N
1547427915.2,286047001.3,N
1547427935.1,286047002.7,N
1547427936.0,286047002.7,N
1547427955.8,286047001.5,N
1547427975.7,286047001.7,N
1547427995.5,286047003.8,N
1547428015.3,286047007.6,N
1547428035.2,286047007.6,N
1547428055.0,286047004.7,N
1547428055.9,286047004.7,N
1547428075.7,286047002.4,N
1547428095.6,286047002.2,N
1547428115.4,286047003.9,N
1547428135.3,286047000.2,N
1547428155.1,286046997.5,N
1547428156.0,286046997.5,N
1547428175.8,286047002.7,N
1547428195.7,286047010.3,N
1547428215.5,286047015.4,N
1547428235.3,286047011.0,N
1547428255.2,286047004.6,N
1547428275.0,286047002.3,N
1547428275.9,286047002.3,N
1547428295.8,286047001.2,N
1547428315.6,286047001.2,N
1547428335.4,286047003.8,N
1547428355.3,286047006.8,N
1547428375.1,286047007.9,N
1547428395.9,286047007.7,N
1547428415.7,286047005.5,N
1547428435.5,286047004.0,N
1547428455.4,286047003.6,N
1547428475.2,286047005.7,N
1547428495.0,286047010.8,N
1547428495.9,286047010.8,N
1547428515.8,286047010.3,N
1547428535.6,286047008.0,N
1547428555.5,286047009.3,N
1547428575.3,286047011.4,N
1547428595.1,286047010.3,N
1547428615.9,286047003.0,N
1547428635.7,286047003.5,N
1547428655.6,286047001.3,N
1547428675.4,286046999.7,N
1547428695.2,286046998.5,N
1547428715.1,286046999.8,N
1547428716.0,286046999.8,N
1547428735.8,286046998.2,N
1547428755.6,286046997.0,N
1547428775.5,286046996.6,N
1547428795.3,286046997.5,N
1547428815.2,286046993.7,N
1547428835.0,286046990.5,N
1547428835.9,286046990.5,N
1547428855.7,286046991.2,N
1547428875.6,286046987.5,N
1547428895.4,286046986.0,N
1547428915.3,286046985.0,N
1547428935.1,286046984.5,N
1547428936.0,286046984.5,N
1547428955.8,286046987.9,N
1547428975.7,286046989.2,N
1547428995.5,286046993.8,N
1547429015.3,286046991.9,N
1547429035.2,286046991.5,N
1547429055.0,286046987.3,N
1547429055.9,286046987.3,N
1547429075.8,286046987.5,N
1547429095.6,286046988.4,N
1547429115.5,286046987.4,N
1547429135.3,286046987.8,N
1547429155.1,286046989.4,N
1547429175.9,286046993.2,N
1547429195.7,286046990.3,N
1547429215.6,286046989.2,N
1547429235.4,286046989.8,N
1547429255.2,286046988.0,N
1547429275.1,286046984.0,Y
1547429276.0,286046984.0,P
1547429295.8,286046994.5,N
1547429315.7,286046994.6,N
1547429335.5,286046994.1,N
1547429355.3,286046997.7,N
1547429375.2,286047000.7,N
1547429395.9,286047000.2,N
1547429415.7,286046998.6,N
1547429435.6,286046996.9,N
1547429455.4,286046999.2,N
1547429475.2,286047000.0,N
1547429495.1,286046999.2,N
1547429496.0,286046999.2,N
1547429515.8,286046998.0,N
1547429535.7,286046993.6,N
1547429555.5,286046992.9,N
1547429575.3,286046996.2,N
1547429595.2,286046997.2,N
1547429615.0,286046998.7,N
1547429615.9,286046998.7,N
1547429635.8,286047001.4,N
1547429655.6,286047003.0,N
1547429675.4,286047003.7,N
1547429695.3,286047001.9,N
1547429715.1,286046999.4,N
1547429735.9,286047002.0,N
1547429755.7,286047006.2,N
1547429775.5,286047008.0,N
1547429795.4,286047010.3,N
1547429815.2,286047014.5,N
1547429835.1,286047018.4,Y
1547429836.0,286047018.4,P
1547429855.8,286047015.1,N
1547429875.6,286047009.7,N
1547429895.5,286047005.4,N
1547429915.3,286046999.7,N
1547429935.2,286047000.7,N
1547429955.9,286046996.5,N
1547429975.7,286046997.1,N
1547429995.6,286046997.9,N
1547430015.4,286046995.6,N
1547430035.3,286046995.8,N
1547430055.1,286046998.9,N
1547430056.0,286046998.9,N
1547430075.8,286047004.2,N
1547430095.7,286047003.6,N
1547430115.5,286047007.9,N
1547430135.4,286047009.3,N
1547430155.2,286047010.0,N
1547430175.0,286047004.5,N
1547430175.9,286047004.5,N
1547430195.8,286047004.1,N
1547430215.6,286047007.4,N
1547430235.4,286047009.9,N
1547430255.3,286047014.3,N
1547430275.1,286047023.9,Y
1547430295.9,286047021.0,P
1547430315.7,286047019.7,N
1547430335.5,286047018.2,N
1547430355.4,286047013.1,N
1547430375.2,286047013.6,N
1547430395.1,286047010.0,N
1547430396.0,286047010.0,N
1547430415.8,286047009.1,N
1547430435.6,286047005.5,N
1547430455.5,286047001.8,N
1547430475.3,286047004.9,N
1547430495.2,286047007.0,N
1547430515.9,286047010.2,N
1547430535.7,286047015.1,N
1547430555.6,286047016.0,N
1547430575.4,286047014.5,N
1547430595.2,286047013.4,N
1547430615.1,286047009.9,N
1547430616.0,286047009.9,N
1547430635.8,286047008.5,N
1547430655.7,286047004.8,N
1547430675.5,286047002.5,N
1547430695.3,286047002.3,N
1547430715.2,286047002.4,N
1547430735.0,286046999.6,N
1547430735.9,286046999.6,N
1547430755.8,286046995.5,N
1547430775.6,286046998.8,N
1547430795.4,286047003.2,N
1547430815.3,286047004.7,N
1547430835.1,286047004.0,N
1547430855.8,286047002.1,N
1547430875.7,286047001.9,N
1547430895.5,286047004.9,N
1547430915.4,286047008.0,N
1547430935.2,286047006.6,N
1547430955.0,286047003.1,N
1547430955.9,286047003.1,N
1547430975.8,286047007.4,N
1547430995.6,286047011.6,N
1547431015.4,286047013.8,N
1547431035.3,286047016.1,Y
1547431055.1,286047012.7,P
1547431075.9,286047013.6,P
1547431095.7,286047010.4,P
1547431115.5,286047001.4,N
1547431135.4,286046998.4,N
1547431155.2,286046998.8,N
1547431175.0,286047000.9,N
1547431175.9,286047000.9,N
1547431195.8,286046998.2,N
